Year,Month,Day,Hour,Minute,Value (Times are PST for temperature in C)
2020,03,31,00,00,3.50
2020,03,31,00,01,3.50
2020,03,31,00,02,3.50
2020,03,31,00,03,3.50
2020,03,31,00,04,3.60
2020,03,31,00,05,3.60
2020,03,31,00,06,3.60
2020,03,31,00,07,3.60
2020,03,31,00,08,3.60
2020,03,31,00,09,3.60
2020,03,31,00,10,3.60
2020,03,31,00,11,3.60
2020,03,31,00,12,3.60
2020,03,31,00,13,3.60
2020,03,31,00,14,3.60
2020,03,31,00,15,3.60
2020,03,31,00,16,3.60
2020,03,31,00,17,3.60
2020,03,31,00,18,3.60
2020,03,31,00,19,3.50
2020,03,31,00,20,3.50
2020,03,31,00,21,3.50
2020,03,31,00,22,3.40
2020,03,31,00,23,3.40
2020,03,31,00,24,3.40
2020,03,31,00,25,3.40
2020,03,31,00,26,3.30
2020,03,31,00,27,3.30
2020,03,31,00,28,3.30
2020,03,31,00,29,3.30
2020,03,31,00,30,3.30
2020,03,31,00,31,3.30
2020,03,31,00,32,3.20
2020,03,31,00,33,3.20
2020,03,31,00,34,3.20
2020,03,31,00,35,3.20
2020,03,31,00,36,3.20
2020,03,31,00,37,3.10
2020,03,31,00,38,3.10
2020,03,31,00,39,3.10
2020,03,31,00,40,3.10
2020,03,31,00,41,3.00
2020,03,31,00,42,3.00
2020,03,31,00,43,3.00
2020,03,31,00,44,2.90
2020,03,31,00,45,2.90
2020,03,31,00,46,2.90
2020,03,31,00,47,2.90
2020,03,31,00,48,2.90
2020,03,31,00,49,2.90
2020,03,31,00,50,2.90
2020,03,31,00,51,2.90
2020,03,31,00,52,2.90
2020,03,31,00,53,2.90
2020,03,31,00,54,2.90
2020,03,31,00,55,2.90
2020,03,31,00,56,2.90
2020,03,31,00,57,2.90
2020,03,31,00,58,2.90
2020,03,31,00,59,2.90
2020,03,31,01,00,2.90
2020,03,31,01,01,2.90
2020,03,31,01,02,2.90
2020,03,31,01,03,2.90
2020,03,31,01,04,2.90
2020,03,31,01,05,2.90
2020,03,31,01,06,2.90
2020,03,31,01,07,2.90
2020,03,31,01,08,2.80
2020,03,31,01,09,2.80
2020,03,31,01,10,2.80
2020,03,31,01,11,2.80
2020,03,31,01,12,2.80
2020,03,31,01,13,2.80
2020,03,31,01,14,2.80
2020,03,31,01,15,2.80
2020,03,31,01,16,2.80
2020,03,31,01,17,2.70
2020,03,31,01,18,2.70
2020,03,31,01,19,2.70
2020,03,31,01,20,2.70
2020,03,31,01,21,2.60
2020,03,31,01,22,2.60
2020,03,31,01,23,2.60
2020,03,31,01,24,2.60
2020,03,31,01,25,2.60
2020,03,31,01,26,2.60
2020,03,31,01,27,2.60
2020,03,31,01,28,2.60
2020,03,31,01,29,2.60
2020,03,31,01,30,2.60
2020,03,31,01,31,2.60
2020,03,31,01,32,2.60
2020,03,31,01,33,2.60
2020,03,31,01,34,2.60
2020,03,31,01,35,2.60
2020,03,31,01,36,2.60
2020,03,31,01,37,2.60
2020,03,31,01,38,2.60
2020,03,31,01,39,2.60
2020,03,31,01,40,2.60
2020,03,31,01,41,2.60
2020,03,31,01,42,2.60
2020,03,31,01,43,2.60
2020,03,31,01,44,2.60
2020,03,31,01,45,2.50
2020,03,31,01,46,2.50
2020,03,31,01,47,2.50
2020,03,31,01,48,2.50
2020,03,31,01,49,2.50
2020,03,31,01,50,2.50
2020,03,31,01,51,2.50
2020,03,31,01,52,2.50
2020,03,31,01,53,2.50
2020,03,31,01,54,2.40
2020,03,31,01,55,2.40
2020,03,31,01,56,2.40
2020,03,31,01,57,2.40
2020,03,31,01,58,2.40
2020,03,31,01,59,2.40
2020,03,31,02,00,2.30
2020,03,31,02,01,2.30
2020,03,31,02,02,2.30
2020,03,31,02,03,2.30
2020,03,31,02,04,2.30
2020,03,31,02,05,2.30
2020,03,31,02,06,2.30
2020,03,31,02,07,2.20
2020,03,31,02,08,2.20
2020,03,31,02,09,2.20
2020,03,31,02,10,2.20
2020,03,31,02,11,2.20
2020,03,31,02,12,2.20
2020,03,31,02,13,2.20
2020,03,31,02,14,2.20
2020,03,31,02,15,2.20
2020,03,31,02,16,2.30
2020,03,31,02,17,2.30
2020,03,31,02,18,2.30
2020,03,31,02,19,2.30
2020,03,31,02,20,2.30
2020,03,31,02,21,2.40
2020,03,31,02,22,2.40
2020,03,31,02,23,2.40
2020,03,31,02,24,2.40
2020,03,31,02,25,2.40
2020,03,31,02,26,2.40
2020,03,31,02,27,2.40
2020,03,31,02,28,2.40
2020,03,31,02,29,2.40
2020,03,31,02,30,2.50
2020,03,31,02,31,2.50
2020,03,31,02,32,2.50
2020,03,31,02,33,2.50
2020,03,31,02,34,2.50
2020,03,31,02,35,2.50
2020,03,31,02,36,2.60
2020,03,31,02,37,2.60
2020,03,31,02,38,2.60
2020,03,31,02,39,2.60
2020,03,31,02,40,2.60
2020,03,31,02,41,2.60
2020,03,31,02,42,2.60
2020,03,31,02,43,2.60
2020,03,31,02,44,2.60
2020,03,31,02,45,2.60
2020,03,31,02,46,2.60
2020,03,31,02,47,2.60
2020,03,31,02,48,2.60
2020,03,31,02,49,2.60
2020,03,31,02,50,2.60
2020,03,31,02,51,2.60
2020,03,31,02,52,2.60
2020,03,31,02,53,2.60
2020,03,31,02,54,2.60
2020,03,31,02,55,2.60
2020,03,31,02,56,2.60
2020,03,31,02,57,2.60
2020,03,31,02,58,2.60
2020,03,31,02,59,2.60
2020,03,31,03,00,2.60
2020,03,31,03,01,2.60
2020,03,31,03,02,2.60
2020,03,31,03,03,2.60
2020,03,31,03,04,2.60
2020,03,31,03,05,2.60
2020,03,31,03,06,2.60
2020,03,31,03,07,2.60
2020,03,31,03,08,2.60
2020,03,31,03,09,2.60
2020,03,31,03,10,2.60
2020,03,31,03,11,2.60
2020,03,31,03,12,2.60
2020,03,31,03,13,2.60
2020,03,31,03,14,2.60
2020,03,31,03,15,2.60
2020,03,31,03,16,2.60
2020,03,31,03,17,2.50
2020,03,31,03,18,2.50
2020,03,31,03,19,2.50
2020,03,31,03,20,2.50
2020,03,31,03,21,2.50
2020,03,31,03,22,2.50
2020,03,31,03,23,2.40
2020,03,31,03,24,2.40
2020,03,31,03,25,2.40
2020,03,31,03,26,2.40
2020,03,31,03,27,2.40
2020,03,31,03,28,2.40
2020,03,31,03,29,2.40
2020,03,31,03,30,2.30
2020,03,31,03,31,2.30
2020,03,31,03,32,2.30
2020,03,31,03,33,2.30
2020,03,31,03,34,2.30
2020,03,31,03,35,2.30
2020,03,31,03,36,2.30
2020,03,31,03,37,2.30
2020,03,31,03,38,2.30
2020,03,31,03,39,2.30
2020,03,31,03,40,2.30
2020,03,31,03,41,2.30
2020,03,31,03,42,2.30
2020,03,31,03,43,2.30
2020,03,31,03,44,2.30
2020,03,31,03,45,2.30
2020,03,31,03,46,2.30
2020,03,31,03,47,2.30
2020,03,31,03,48,2.30
2020,03,31,03,49,2.30
2020,03,31,03,50,2.30
2020,03,31,03,51,2.30
2020,03,31,03,52,2.30
2020,03,31,03,53,2.30
2020,03,31,03,54,2.30
2020,03,31,03,55,2.30
2020,03,31,03,56,2.30
2020,03,31,03,57,2.30
2020,03,31,03,58,2.30
2020,03,31,03,59,2.30
2020,03,31,04,00,2.30
2020,03,31,04,01,2.30
2020,03,31,04,02,2.30
2020,03,31,04,03,2.30
2020,03,31,04,04,2.30
2020,03,31,04,05,2.30
2020,03,31,04,06,2.30
2020,03,31,04,07,2.30
2020,03,31,04,08,2.30
2020,03,31,04,09,2.30
2020,03,31,04,10,2.30
2020,03,31,04,11,2.30
2020,03,31,04,12,2.30
2020,03,31,04,13,2.30
2020,03,31,04,14,2.30
2020,03,31,04,15,2.30
2020,03,31,04,16,2.30
2020,03,31,04,17,2.30
2020,03,31,04,18,2.40
2020,03,31,04,19,2.40
2020,03,31,04,20,2.30
2020,03,31,04,21,2.30
2020,03,31,04,22,2.30
2020,03,31,04,23,2.30
2020,03,31,04,24,2.30
2020,03,31,04,25,2.30
2020,03,31,04,26,2.30
2020,03,31,04,27,2.30
2020,03,31,04,28,2.30
2020,03,31,04,29,2.30
2020,03,31,04,30,2.30
2020,03,31,04,31,2.30
2020,03,31,04,32,2.30
2020,03,31,04,33,2.30
2020,03,31,04,34,2.30
2020,03,31,04,35,2.30
2020,03,31,04,36,2.30
2020,03,31,04,37,2.20
2020,03,31,04,38,2.20
2020,03,31,04,39,2.20
2020,03,31,04,40,2.20
2020,03,31,04,41,2.20
2020,03,31,04,42,2.20
2020,03,31,04,43,2.20
2020,03,31,04,44,2.20
2020,03,31,04,45,2.20
2020,03,31,04,46,2.20
2020,03,31,04,47,2.10
2020,03,31,04,48,2.10
2020,03,31,04,49,2.10
2020,03,31,04,50,2.10
2020,03,31,04,51,2.10
2020,03,31,04,52,2.20
2020,03,31,04,53,2.20
2020,03,31,04,54,2.20
2020,03,31,04,55,2.20
2020,03,31,04,56,2.20
2020,03,31,04,57,2.20
2020,03,31,04,58,2.20
2020,03,31,04,59,2.20
2020,03,31,05,00,2.20
2020,03,31,05,01,2.10
2020,03,31,05,02,2.10
2020,03,31,05,03,2.10
2020,03,31,05,04,2.10
2020,03,31,05,05,2.10
2020,03,31,05,06,2.10
2020,03,31,05,07,2.00
2020,03,31,05,08,2.00
2020,03,31,05,09,2.00
2020,03,31,05,10,1.90
2020,03,31,05,11,1.90
2020,03,31,05,12,1.90
2020,03,31,05,13,1.90
2020,03,31,05,14,1.90
2020,03,31,05,15,1.90
2020,03,31,05,16,1.90
2020,03,31,05,17,1.90
2020,03,31,05,18,1.90
2020,03,31,05,19,1.90
2020,03,31,05,20,1.90
2020,03,31,05,21,1.80
2020,03,31,05,22,1.80
2020,03,31,05,23,1.80
2020,03,31,05,24,1.80
2020,03,31,05,25,1.80
2020,03,31,05,26,1.80
2020,03,31,05,27,1.80
2020,03,31,05,28,1.80
2020,03,31,05,29,1.80
2020,03,31,05,30,1.80
2020,03,31,05,31,1.70
2020,03,31,05,32,1.70
2020,03,31,05,33,1.70
2020,03,31,05,34,1.70
2020,03,31,05,35,1.70
2020,03,31,05,36,1.70
2020,03,31,05,37,1.70
2020,03,31,05,38,1.70
2020,03,31,05,39,1.70
2020,03,31,05,40,1.70
2020,03,31,05,41,1.70
2020,03,31,05,42,1.70
2020,03,31,05,43,1.70
2020,03,31,05,44,1.70
2020,03,31,05,45,1.60
2020,03,31,05,46,1.60
2020,03,31,05,47,1.60
2020,03,31,05,48,1.60
2020,03,31,05,49,1.60
2020,03,31,05,50,1.60
2020,03,31,05,51,1.60
2020,03,31,05,52,1.60
2020,03,31,05,53,1.60
2020,03,31,05,54,1.60
2020,03,31,05,55,1.60
2020,03,31,05,56,1.60
2020,03,31,05,57,1.60
2020,03,31,05,58,1.60
2020,03,31,05,59,1.60
2020,03,31,06,00,1.60
2020,03,31,06,01,1.60
2020,03,31,06,02,1.60
2020,03,31,06,03,1.60
2020,03,31,06,04,1.60
2020,03,31,06,05,1.60
2020,03,31,06,06,1.60
2020,03,31,06,07,1.50
2020,03,31,06,08,1.50
2020,03,31,06,09,1.50
2020,03,31,06,10,1.40
2020,03,31,06,11,1.40
2020,03,31,06,12,1.40
2020,03,31,06,13,1.30
2020,03,31,06,14,1.30
2020,03,31,06,15,1.30
2020,03,31,06,16,1.20
2020,03,31,06,17,1.20
2020,03,31,06,18,1.10
2020,03,31,06,19,1.10
2020,03,31,06,20,1.10
2020,03,31,06,21,1.00
2020,03,31,06,22,0.90
2020,03,31,06,23,0.90
2020,03,31,06,24,0.80
2020,03,31,06,25,0.80
2020,03,31,06,26,0.80
2020,03,31,06,27,0.70
2020,03,31,06,28,0.70
2020,03,31,06,29,0.70
2020,03,31,06,30,0.70
2020,03,31,06,31,0.60
2020,03,31,06,32,0.60
2020,03,31,06,33,0.60
2020,03,31,06,34,0.60
2020,03,31,06,35,0.60
2020,03,31,06,36,0.60
2020,03,31,06,37,0.50
2020,03,31,06,38,0.50
2020,03,31,06,39,0.50
2020,03,31,06,40,0.40
2020,03,31,06,41,0.40
2020,03,31,06,42,0.40
2020,03,31,06,43,0.40
2020,03,31,06,44,0.40
2020,03,31,06,45,0.30
2020,03,31,06,46,0.30
2020,03,31,06,47,0.30
2020,03,31,06,48,0.30
2020,03,31,06,49,0.30
2020,03,31,06,50,0.30
2020,03,31,06,51,0.30
2020,03,31,06,52,0.30
2020,03,31,06,53,0.20
2020,03,31,06,54,0.20
2020,03,31,06,55,0.20
2020,03,31,06,56,0.20
2020,03,31,06,57,0.20
2020,03,31,06,58,0.20
2020,03,31,06,59,0.20
2020,03,31,07,00,0.20
2020,03,31,07,01,0.20
2020,03,31,07,02,0.20
2020,03,31,07,03,0.20
2020,03,31,07,04,0.20
2020,03,31,07,05,0.20
2020,03,31,07,06,0.20
2020,03,31,07,07,0.20
2020,03,31,07,08,0.20
2020,03,31,07,09,0.20
2020,03,31,07,10,0.20
2020,03,31,07,11,0.20
2020,03,31,07,12,0.20
2020,03,31,07,13,0.30
2020,03,31,07,14,0.30
2020,03,31,07,15,0.30
2020,03,31,07,16,0.30
2020,03,31,07,17,0.30
2020,03,31,07,18,0.30
2020,03,31,07,19,0.30
2020,03,31,07,20,0.30
2020,03,31,07,21,0.30
2020,03,31,07,22,0.30
2020,03,31,07,23,0.20
2020,03,31,07,24,0.20
2020,03,31,07,25,0.20
2020,03,31,07,26,0.20
2020,03,31,07,27,0.20
2020,03,31,07,28,0.20
2020,03,31,07,29,0.20
2020,03,31,07,30,0.20
2020,03,31,07,31,0.30
2020,03,31,07,32,0.30
2020,03,31,07,33,0.30
2020,03,31,07,34,0.30
2020,03,31,07,35,0.30
2020,03,31,07,36,0.30
2020,03,31,07,37,0.40
2020,03,31,07,38,0.40
2020,03,31,07,39,0.50
2020,03,31,07,40,0.50
2020,03,31,07,41,0.50
2020,03,31,07,42,0.60
2020,03,31,07,43,0.60
2020,03,31,07,44,0.70
2020,03,31,07,45,0.80
2020,03,31,07,46,0.80
2020,03,31,07,47,0.80
2020,03,31,07,48,0.90
2020,03,31,07,49,1.00
2020,03,31,07,50,1.00
2020,03,31,07,51,1.10
2020,03,31,07,52,1.20
2020,03,31,07,53,1.30
2020,03,31,07,54,1.40
2020,03,31,07,55,1.50
2020,03,31,07,56,1.60
2020,03,31,07,57,1.70
2020,03,31,07,58,1.80
2020,03,31,07,59,1.90
2020,03,31,08,00,2.00
2020,03,31,08,01,2.00
2020,03,31,08,02,2.10
2020,03,31,08,03,2.10
2020,03,31,08,04,2.20
2020,03,31,08,05,2.20
2020,03,31,08,06,2.20
2020,03,31,08,07,2.20
2020,03,31,08,08,2.20
2020,03,31,08,09,2.30
2020,03,31,08,10,2.30
2020,03,31,08,11,2.40
2020,03,31,08,12,2.50
2020,03,31,08,13,2.60
2020,03,31,08,14,2.70
2020,03,31,08,15,2.70
2020,03,31,08,16,2.80
2020,03,31,08,17,2.90
2020,03,31,08,18,3.00
2020,03,31,08,19,3.10
2020,03,31,08,20,3.30
2020,03,31,08,21,3.40
2020,03,31,08,22,3.50
2020,03,31,08,23,3.60
2020,03,31,08,24,3.70
2020,03,31,08,25,3.80
2020,03,31,08,26,4.00
2020,03,31,08,27,4.10
2020,03,31,08,28,4.20
2020,03,31,08,29,4.40
2020,03,31,08,30,4.50
2020,03,31,08,31,4.60
2020,03,31,08,32,4.80
2020,03,31,08,33,4.90
2020,03,31,08,34,5.10
2020,03,31,08,35,5.20
2020,03,31,08,36,5.30
2020,03,31,08,37,5.40
2020,03,31,08,38,5.50
2020,03,31,08,39,5.60
2020,03,31,08,40,5.70
2020,03,31,08,41,5.80
2020,03,31,08,42,5.80
2020,03,31,08,43,5.90
2020,03,31,08,44,5.90
2020,03,31,08,45,5.90
2020,03,31,08,46,6.00
2020,03,31,08,47,6.00
2020,03,31,08,48,6.10
2020,03,31,08,49,6.10
2020,03,31,08,50,6.00
2020,03,31,08,51,6.00
2020,03,31,08,52,6.00
2020,03,31,08,53,5.90
2020,03,31,08,54,5.90
2020,03,31,08,55,5.80
2020,03,31,08,56,5.80
2020,03,31,08,57,5.80
2020,03,31,08,58,5.70
2020,03,31,08,59,5.70
2020,03,31,09,00,5.70
2020,03,31,09,01,5.70
2020,03,31,09,02,5.60
2020,03,31,09,03,5.60
2020,03,31,09,04,5.60
2020,03,31,09,05,5.60
2020,03,31,09,06,5.60
2020,03,31,09,07,5.60
2020,03,31,09,08,5.60
2020,03,31,09,09,5.70
2020,03,31,09,10,5.70
2020,03,31,09,11,5.80
2020,03,31,09,12,5.80
2020,03,31,09,13,5.90
2020,03,31,09,14,6.00
2020,03,31,09,15,6.00
2020,03,31,09,16,6.10
2020,03,31,09,17,6.20
2020,03,31,09,18,6.30
2020,03,31,09,19,6.40
2020,03,31,09,20,6.50
2020,03,31,09,21,6.50
2020,03,31,09,22,6.60
2020,03,31,09,23,6.60
2020,03,31,09,24,6.70
2020,03,31,09,25,6.80
2020,03,31,09,26,6.80
2020,03,31,09,27,6.90
2020,03,31,09,28,7.00
2020,03,31,09,29,7.10
2020,03,31,09,30,7.20
2020,03,31,09,31,7.30
2020,03,31,09,32,7.40
2020,03,31,09,33,7.50
2020,03,31,09,34,7.60
2020,03,31,09,35,7.60
2020,03,31,09,36,7.70
2020,03,31,09,37,7.80
2020,03,31,09,38,7.80
2020,03,31,09,39,7.80
2020,03,31,09,40,7.80
2020,03,31,09,41,7.80
2020,03,31,09,42,7.80
2020,03,31,09,43,7.70
2020,03,31,09,44,7.70
2020,03,31,09,45,7.70
2020,03,31,09,46,7.70
2020,03,31,09,47,7.60
2020,03,31,09,48,7.60
2020,03,31,09,49,7.60
2020,03,31,09,50,7.50
2020,03,31,09,51,7.50
2020,03,31,09,52,7.40
2020,03,31,09,53,7.40
2020,03,31,09,54,7.30
2020,03,31,09,55,7.30
2020,03,31,09,56,7.30
2020,03,31,09,57,7.20
2020,03,31,09,58,7.20
2020,03,31,09,59,7.20
2020,03,31,10,00,7.20
2020,03,31,10,01,7.20
2020,03,31,10,02,7.20
2020,03,31,10,03,7.20
2020,03,31,10,04,7.20
2020,03,31,10,05,7.20
2020,03,31,10,06,7.20
2020,03,31,10,07,7.20
2020,03,31,10,08,7.20
2020,03,31,10,09,7.20
2020,03,31,10,10,7.20
2020,03,31,10,11,7.30
2020,03,31,10,12,7.30
2020,03,31,10,13,7.30
2020,03,31,10,14,7.30
2020,03,31,10,15,7.30
2020,03,31,10,16,7.30
2020,03,31,10,17,7.30
2020,03,31,10,18,7.30
2020,03,31,10,19,7.30
2020,03,31,10,20,7.30
2020,03,31,10,21,7.40
2020,03,31,10,22,7.40
2020,03,31,10,23,7.40
2020,03,31,10,24,7.40
2020,03,31,10,25,7.50
2020,03,31,10,26,7.50
2020,03,31,10,27,7.60
2020,03,31,10,28,7.60
2020,03,31,10,29,7.60
2020,03,31,10,30,7.60
2020,03,31,10,31,7.60
2020,03,31,10,32,7.60
2020,03,31,10,33,7.60
2020,03,31,10,34,7.60
2020,03,31,10,35,7.60
2020,03,31,10,36,7.60
2020,03,31,10,37,7.60
2020,03,31,10,38,7.60
2020,03,31,10,39,7.60
2020,03,31,10,40,7.60
2020,03,31,10,41,7.70
2020,03,31,10,42,7.60
2020,03,31,10,43,7.60
2020,03,31,10,44,7.60
2020,03,31,10,45,7.60
2020,03,31,10,46,7.60
2020,03,31,10,47,7.60
2020,03,31,10,48,7.60
2020,03,31,10,49,7.50
2020,03,31,10,50,7.50
2020,03,31,10,51,7.40
2020,03,31,10,52,7.40
2020,03,31,10,53,7.40
2020,03,31,10,54,7.40
2020,03,31,10,55,7.40
2020,03,31,10,56,7.40
2020,03,31,10,57,7.50
2020,03,31,10,58,7.50
2020,03,31,10,59,7.60
2020,03,31,11,00,7.60
2020,03,31,11,01,7.70
2020,03,31,11,02,7.80
2020,03,31,11,03,7.80
2020,03,31,11,04,7.80
2020,03,31,11,05,7.80
2020,03,31,11,06,7.90
2020,03,31,11,07,7.90
2020,03,31,11,08,7.90
2020,03,31,11,09,7.90
2020,03,31,11,10,7.90
2020,03,31,11,11,7.90
2020,03,31,11,12,7.80
2020,03,31,11,13,7.80
2020,03,31,11,14,7.80
2020,03,31,11,15,7.80
2020,03,31,11,16,7.80
2020,03,31,11,17,7.80
2020,03,31,11,18,7.80
2020,03,31,11,19,7.70
2020,03,31,11,20,7.70
2020,03,31,11,21,7.70
2020,03,31,11,22,7.70
2020,03,31,11,23,7.70
2020,03,31,11,24,7.70
2020,03,31,11,25,7.70
2020,03,31,11,26,7.70
2020,03,31,11,27,7.70
2020,03,31,11,28,7.70
2020,03,31,11,29,7.70
2020,03,31,11,30,7.70
2020,03,31,11,31,7.70
2020,03,31,11,32,7.80
2020,03,31,11,33,7.80
2020,03,31,11,34,7.70
2020,03,31,11,35,7.70
2020,03,31,11,36,7.70
2020,03,31,11,37,7.70
2020,03,31,11,38,7.70
2020,03,31,11,39,7.70
2020,03,31,11,40,7.70
2020,03,31,11,41,7.70
2020,03,31,11,42,7.70
2020,03,31,11,43,7.70
2020,03,31,11,44,7.70
2020,03,31,11,45,7.70
2020,03,31,11,46,7.70
2020,03,31,11,47,7.70
2020,03,31,11,48,7.70
2020,03,31,11,49,7.70
2020,03,31,11,50,7.70
2020,03,31,11,51,7.60
2020,03,31,11,52,7.60
2020,03,31,11,53,7.60
2020,03,31,11,54,7.60
2020,03,31,11,55,7.60
2020,03,31,11,56,7.60
2020,03,31,11,57,7.60
2020,03,31,11,58,7.60
2020,03,31,11,59,7.60
2020,03,31,12,00,7.60
2020,03,31,12,01,7.70
2020,03,31,12,02,7.70
2020,03,31,12,03,7.80
2020,03,31,12,04,7.80
2020,03,31,12,05,7.80
2020,03,31,12,06,7.80
2020,03,31,12,07,7.80
2020,03,31,12,08,7.80
2020,03,31,12,09,7.90
2020,03,31,12,10,7.80
2020,03,31,12,11,7.80
2020,03,31,12,12,7.80
2020,03,31,12,13,7.80
2020,03,31,12,14,7.80
2020,03,31,12,15,7.80
2020,03,31,12,16,7.80
2020,03,31,12,17,7.80
2020,03,31,12,18,7.80
2020,03,31,12,19,7.80
2020,03,31,12,20,7.80
2020,03,31,12,21,7.80
2020,03,31,12,22,7.80
2020,03,31,12,23,7.80
2020,03,31,12,24,7.90
2020,03,31,12,25,7.90
2020,03,31,12,26,8.00
2020,03,31,12,27,8.10
2020,03,31,12,28,8.20
2020,03,31,12,29,8.40
2020,03,31,12,30,8.40
2020,03,31,12,31,8.50
2020,03,31,12,32,8.70
2020,03,31,12,33,8.80
2020,03,31,12,34,8.80
2020,03,31,12,35,8.90
2020,03,31,12,36,8.80
2020,03,31,12,37,8.80
2020,03,31,12,38,8.80
2020,03,31,12,39,8.80
2020,03,31,12,40,8.80
2020,03,31,12,41,8.90
2020,03,31,12,42,8.90
2020,03,31,12,43,9.00
2020,03,31,12,44,9.10
2020,03,31,12,45,9.10
2020,03,31,12,46,9.10
2020,03,31,12,47,9.10
2020,03,31,12,48,9.10
2020,03,31,12,49,9.20
2020,03,31,12,50,9.20
2020,03,31,12,51,9.20
2020,03,31,12,52,9.20
2020,03,31,12,53,9.30
2020,03,31,12,54,9.30
2020,03,31,12,55,9.40
2020,03,31,12,56,9.40
2020,03,31,12,57,9.50
2020,03,31,12,58,9.60
2020,03,31,12,59,9.60
2020,03,31,13,00,9.60
2020,03,31,13,01,9.70
2020,03,31,13,02,9.70
2020,03,31,13,03,9.70
2020,03,31,13,04,9.60
2020,03,31,13,05,9.60
2020,03,31,13,06,9.60
2020,03,31,13,07,9.50
2020,03,31,13,08,9.60
2020,03,31,13,09,9.60
2020,03,31,13,10,9.60
2020,03,31,13,11,9.60
2020,03,31,13,12,9.60
2020,03,31,13,13,9.60
2020,03,31,13,14,9.60
2020,03,31,13,15,9.60
2020,03,31,13,16,9.60
2020,03,31,13,17,9.50
2020,03,31,13,18,9.60
2020,03,31,13,19,9.60
2020,03,31,13,20,9.60
2020,03,31,13,21,9.50
2020,03,31,13,22,9.50
2020,03,31,13,23,9.50
2020,03,31,13,24,9.40
2020,03,31,13,25,9.30
2020,03,31,13,26,9.30
2020,03,31,13,27,9.30
2020,03,31,13,28,9.30
2020,03,31,13,29,9.30
2020,03,31,13,30,9.20
2020,03,31,13,31,9.20
2020,03,31,13,32,9.20
2020,03,31,13,33,9.20
2020,03,31,13,34,9.20
2020,03,31,13,35,9.20
2020,03,31,13,36,9.30
2020,03,31,13,37,9.40
2020,03,31,13,38,9.40
2020,03,31,13,39,9.40
2020,03,31,13,40,9.40
2020,03,31,13,41,9.50
2020,03,31,13,42,9.50
2020,03,31,13,43,9.60
2020,03,31,13,44,9.60
2020,03,31,13,45,9.60
2020,03,31,13,46,9.60
2020,03,31,13,47,9.60
2020,03,31,13,48,9.50
2020,03,31,13,49,9.50
2020,03,31,13,50,9.50
2020,03,31,13,51,9.50
2020,03,31,13,52,9.50
2020,03,31,13,53,9.50
2020,03,31,13,54,9.50
2020,03,31,13,55,9.50
2020,03,31,13,56,9.50
2020,03,31,13,57,9.50
2020,03,31,13,58,9.40
2020,03,31,13,59,9.50
2020,03,31,14,00,9.50
2020,03,31,14,01,9.50
2020,03,31,14,02,9.50
2020,03,31,14,03,9.40
2020,03,31,14,04,9.40
2020,03,31,14,05,9.40
2020,03,31,14,06,9.40
2020,03,31,14,07,9.30
2020,03,31,14,08,9.30
2020,03,31,14,09,9.30
2020,03,31,14,10,9.30
2020,03,31,14,11,9.40
2020,03,31,14,12,9.50
2020,03,31,14,13,9.50
2020,03,31,14,14,9.60
2020,03,31,14,15,9.70
2020,03,31,14,16,9.70
2020,03,31,14,17,9.80
2020,03,31,14,18,9.90
2020,03,31,14,19,9.90
2020,03,31,14,20,9.90
2020,03,31,14,21,10.00
2020,03,31,14,22,10.10
2020,03,31,14,23,10.10
2020,03,31,14,24,10.10
2020,03,31,14,25,10.20
2020,03,31,14,26,10.20
2020,03,31,14,27,10.20
2020,03,31,14,28,10.10
2020,03,31,14,29,10.10
2020,03,31,14,30,10.20
2020,03,31,14,31,10.20
2020,03,31,14,32,10.20
2020,03,31,14,33,10.10
2020,03,31,14,34,10.10
2020,03,31,14,35,10.00
2020,03,31,14,36,10.00
2020,03,31,14,37,9.90
2020,03,31,14,38,9.80
2020,03,31,14,39,9.80
2020,03,31,14,40,9.70
2020,03,31,14,41,9.60
2020,03,31,14,42,9.60
2020,03,31,14,43,9.60
2020,03,31,14,44,9.60
2020,03,31,14,45,9.50
2020,03,31,14,46,9.50
2020,03,31,14,47,9.40
2020,03,31,14,48,9.40
2020,03,31,14,49,9.30
2020,03,31,14,50,9.30
2020,03,31,14,51,9.40
2020,03,31,14,52,9.40
2020,03,31,14,53,9.40
2020,03,31,14,54,9.40
2020,03,31,14,55,9.50
2020,03,31,14,56,9.50
2020,03,31,14,57,9.50
2020,03,31,14,58,9.60
2020,03,31,14,59,9.60
2020,03,31,15,00,9.70
2020,03,31,15,01,9.70
2020,03,31,15,02,9.70
2020,03,31,15,03,9.70
2020,03,31,15,04,9.70
2020,03,31,15,05,9.70
2020,03,31,15,06,9.70
2020,03,31,15,07,9.60
2020,03,31,15,08,9.60
2020,03,31,15,09,9.60
2020,03,31,15,10,9.50
2020,03,31,15,11,9.50
2020,03,31,15,12,9.40
2020,03,31,15,13,9.30
2020,03,31,15,14,9.30
2020,03,31,15,15,9.20
2020,03,31,15,16,9.10
2020,03,31,15,17,9.00
2020,03,31,15,18,9.00
2020,03,31,15,19,8.90
2020,03,31,15,20,8.80
2020,03,31,15,21,8.80
2020,03,31,15,22,8.70
2020,03,31,15,23,8.70
2020,03,31,15,24,8.60
2020,03,31,15,25,8.60
2020,03,31,15,26,8.60
2020,03,31,15,27,8.60
2020,03,31,15,28,8.50
2020,03,31,15,29,8.50
2020,03,31,15,30,8.50
2020,03,31,15,31,8.40
2020,03,31,15,32,8.40
2020,03,31,15,33,8.40
2020,03,31,15,34,8.40
2020,03,31,15,35,8.40
2020,03,31,15,36,8.40
2020,03,31,15,37,8.40
2020,03,31,15,38,8.30
2020,03,31,15,39,8.30
2020,03,31,15,40,8.30
2020,03,31,15,41,8.30
2020,03,31,15,42,8.30
2020,03,31,15,43,8.30
2020,03,31,15,44,8.30
2020,03,31,15,45,8.30
2020,03,31,15,46,8.30
2020,03,31,15,47,8.30
2020,03,31,15,48,8.30
2020,03,31,15,49,8.30
2020,03,31,15,50,8.30
2020,03,31,15,51,8.30
2020,03,31,15,52,8.30
2020,03,31,15,53,8.30
2020,03,31,15,54,8.30
2020,03,31,15,55,8.30
2020,03,31,15,56,8.30
2020,03,31,15,57,8.30
2020,03,31,15,58,8.20
2020,03,31,15,59,8.20
2020,03,31,16,00,8.30
2020,03,31,16,01,8.20
2020,03,31,16,02,8.20
2020,03,31,16,03,8.20
2020,03,31,16,04,8.20
2020,03,31,16,05,8.20
2020,03,31,16,06,8.10
2020,03,31,16,07,8.00
2020,03,31,16,08,7.90
2020,03,31,16,09,7.80
2020,03,31,16,10,7.70
2020,03,31,16,11,7.60
2020,03,31,16,12,7.60
2020,03,31,16,13,7.50
2020,03,31,16,14,7.40
2020,03,31,16,15,7.30
2020,03,31,16,16,7.30
2020,03,31,16,17,7.20
2020,03,31,16,18,7.10
2020,03,31,16,19,7.00
2020,03,31,16,20,6.90
2020,03,31,16,21,6.90
2020,03,31,16,22,6.80
2020,03,31,16,23,6.70
2020,03,31,16,24,6.70
2020,03,31,16,25,6.60
2020,03,31,16,26,6.60
2020,03,31,16,27,6.60
2020,03,31,16,28,6.50
2020,03,31,16,29,6.50
2020,03,31,16,30,6.40
2020,03,31,16,31,6.40
2020,03,31,16,32,6.30
2020,03,31,16,33,6.30
2020,03,31,16,34,6.30
2020,03,31,16,35,6.20
2020,03,31,16,36,6.20
2020,03,31,16,37,6.10
2020,03,31,16,38,6.10
2020,03,31,16,39,6.00
2020,03,31,16,40,6.00
2020,03,31,16,41,5.90
2020,03,31,16,42,5.90
2020,03,31,16,43,5.80
2020,03,31,16,44,5.80
2020,03,31,16,45,5.80
2020,03,31,16,46,5.80
2020,03,31,16,47,5.80
2020,03,31,16,48,5.80
2020,03,31,16,49,5.90
2020,03,31,16,50,6.00
2020,03,31,16,51,6.10
2020,03,31,16,52,6.20
2020,03,31,16,53,6.20
2020,03,31,16,54,6.30
2020,03,31,16,55,6.30
2020,03,31,16,56,6.40
2020,03,31,16,57,6.50
2020,03,31,16,58,6.60
2020,03,31,16,59,6.60
2020,03,31,17,00,6.70
2020,03,31,17,01,6.70
2020,03,31,17,02,6.80
2020,03,31,17,03,6.80
2020,03,31,17,04,6.90
2020,03,31,17,05,6.90
2020,03,31,17,06,6.90
2020,03,31,17,07,7.00
2020,03,31,17,08,7.00
2020,03,31,17,09,6.90
2020,03,31,17,10,6.90
2020,03,31,17,11,6.90
2020,03,31,17,12,6.90
2020,03,31,17,13,6.90
2020,03,31,17,14,6.90
2020,03,31,17,15,6.90
2020,03,31,17,16,6.90
2020,03,31,17,17,6.90
2020,03,31,17,18,6.90
2020,03,31,17,19,7.00
2020,03,31,17,20,7.00
2020,03,31,17,21,7.10
2020,03,31,17,22,7.10
2020,03,31,17,23,7.10
2020,03,31,17,24,7.10
2020,03,31,17,25,7.10
2020,03,31,17,26,7.10
2020,03,31,17,27,7.20
2020,03,31,17,28,7.20
2020,03,31,17,29,7.30
2020,03,31,17,30,7.40
2020,03,31,17,31,7.40
2020,03,31,17,32,7.40
2020,03,31,17,33,7.50
2020,03,31,17,34,7.60
2020,03,31,17,35,7.70
2020,03,31,17,36,7.70
2020,03,31,17,37,7.70
2020,03,31,17,38,7.70
2020,03,31,17,39,7.70
2020,03,31,17,40,7.70
2020,03,31,17,41,7.70
2020,03,31,17,42,7.70
2020,03,31,17,43,7.70
2020,03,31,17,44,7.70
2020,03,31,17,45,7.70
2020,03,31,17,46,7.70
2020,03,31,17,47,7.70
2020,03,31,17,48,7.60
2020,03,31,17,49,7.60
2020,03,31,17,50,7.60
2020,03,31,17,51,7.60
2020,03,31,17,52,7.60
2020,03,31,17,53,7.60
2020,03,31,17,54,7.50
2020,03,31,17,55,7.50
2020,03,31,17,56,7.40
2020,03,31,17,57,7.30
2020,03,31,17,58,7.30
2020,03,31,17,59,7.20
2020,03,31,18,00,7.20
2020,03,31,18,01,7.20
2020,03,31,18,02,7.10
2020,03,31,18,03,7.10
2020,03,31,18,04,7.00
2020,03,31,18,05,6.90
2020,03,31,18,06,6.90